Погода в Хамадане

Иран     34°47′53″N   48°30′52″E
темп.,
°C
ветер,
м/с
пор.,
м/с
влажн.,
%
обл.,
%
осадки,
мм/ч
давл.,
гПа
погр.,
м
13 мая, чт
чт1301:30+12св116675 0.0 101628
04:30+11ю226087 0.0 101518
07:30+13в115320 0.0 101541
10:30+18с23370 0.0 10141526
13:30+19зсз142653 0.1 10122397
16:30+20ссв352897 0.3 10112389
19:30+12ююв5568100 2.4 1016210
22:30+10ююв2276100 6.1 1019117
14 мая, пт
пт1401:30+11ююз1167100 0.0 101631
04:30+9св22800 0.0 101743
07:30+10всв12750 0.0 1017107
10:30+15св21490 0.0 10151132
13:30+19с433583 0.1 10132988
16:30+8юв8882100 5.8 1017206
19:30+12ююз2257100 3.1 101585
22:30+10вюв3481100 4.1 1017234
15 мая, сб
сб1501:30+10св3375100 0.1 101689
04:30+8св2284100 0.1 101645
07:30+9св228311 0.0 1017151
10:30+14всв33585 0.0 10151020
13:30+16в334739 0.8 10131826
16:30+16всв434494 1.1 10121793
19:30+15всв34482 0.1 1013772
22:30+12вюв33582 0.1 101590
16 мая, вс
вс1601:30+11вюв33650 0.0 101555
04:30+10в22640 0.0 101443
07:30+11вюв23670 0.0 1015156
10:30+15вюв33460 0.0 10141184
13:30+19вюв23345 0.0 10122338
16:30+21зсз122595 0.0 10092829
19:30+19св01370 0.1 101080
22:30+14юв34500 0.1 101367
17 мая, пн
пн1701:30+13юв33520 0.0 101343
04:30+13ю22545 0.0 101421
07:30+15ююв11500 0.0 101422
10:30+20сз24282 0.0 10132450
13:30+22з34190 0.0 10123157
16:30+23зюз251711 0.0 10113726
19:30+21сз332398 0.0 1011143
22:30+17в212887 0.0 101341